Location: Unspecified
(0.0000°N, 0.0000°E)
Time: 06:30:46
(UTC+00:00)

Courier 1B - Pass Details

Date: 26 September 2023
Orbit: 962 x 1208 km, 28.3° (Epoch: 06 December)

Event Time Altitude Azimuth Distance (km) Brightness Sun altitude
Rises 08:48:40 0° 234° (SW) 3,793 10.2 44.3°
Reaches altitude 10° 08:51:21 10° 231° (SW) 2,874 9.7 45.0°
Maximum altitude 08:58:22 66° 149° (SSE) 1,194 9.1 46.7°
Drops below altitude 10° 09:05:50 10° 68° (ENE) 3,050 10.9 48.6°
Sets 09:08:45 0° 66° (ENE) 4,040 11.3 49.3°
